Location: Arrien
(42.8963°N, 1.0429°E)
Time: 14:09:07
(UTC+00:00)

Cosmos 2227 Rocket - Pass Details

Date: 11 December 2025
Orbit: 838 x 844 km, 71.0° (Epoch: 19 January)

Event Time Altitude Azimuth Distance (km) Brightness Sun altitude
Rises 16:53:21 0° 341° (NNW) 3,401 5.3 -6.0°
Reaches altitude 10° 16:56:01 10° 350° (N) 2,464 4.5 -6.4°
Maximum altitude 17:01:12 36° 57° (ENE) 1,308 2.7 -7.2°
Drops below altitude 10° 17:06:21 10° 123° (ESE) 2,454 4.3 -8.1°
Sets 17:08:59 0° 132° (SE) 3,386 5.1 -8.5°
